This is the latest recevied weather packets stored in our database for station/object N7AWM. If no packets are shown the sender has not sent any weather packets the latest 10 day(s).
| Time | Temp. | Humidity | Pressure | Rain* | Wind** | Luminosity | Snow |
|---|---|---|---|---|---|---|---|
| 1777835171 | 24.44° C | 31% | 1010 hPa | 0 mm | - | - | - |
| 1777834331 | 24.44° C | 33% | 1010.1 hPa | 0 mm | - | - | - |
| 1777833491 | 24.44° C | 32% | 1010.2 hPa | 0 mm | - | - | - |
| 1777832651 | 24.44° C | 32% | 1010.3 hPa | 0 mm | - | - | - |
| 1777831811 | 24.44° C | 35% | 1010.5 hPa | 0 mm | - | - | - |
| 1777830971 | 23.89° C | 33% | 1010.6 hPa | 0 mm | - | - | - |
| 1777830131 | 23.33° C | 33% | 1010.6 hPa | 0 mm | - | - | - |
| 1777829291 | 23.33° C | 34% | 1010.6 hPa | 0 mm | - | - | - |
| 1777828451 | 22.78° C | 36% | 1010.8 hPa | 0 mm | - | - | - |
| 1777827612 | 22.22° C | 38% | 1010.8 hPa | 0 mm | - | - | - |
| 1777826772 | 22.22° C | 41% | 1010.8 hPa | 0 mm | - | - | - |
| 1777825932 | 21.67° C | 46% | 1010.9 hPa | 0 mm | - | - | - |
| 1777825092 | 21.67° C | 46% | 1011 hPa | 0 mm | - | - | - |
| 1777823737 | 21.11° C | 48% | 1011.1 hPa | 0 mm | - | - | - |
| 1777822897 | 20° C | 49% | 1011.1 hPa | 0 mm | - | - | - |
| 1777822057 | 18.33° C | 51% | 1011 hPa | 0 mm | - | - | - |
| 1777821217 | 18.33° C | 53% | 1010.9 hPa | 0 mm | - | - | - |
| 1777820377 | 17.78° C | 54% | 1010.9 hPa | 0 mm | - | - | - |
| 1777819537 | 16.67° C | 54% | 1011 hPa | 0 mm | - | - | - |
| 1777818697 | 16.11° C | 54% | 1011 hPa | 0 mm | - | - | - |
| 1777817857 | 15.56° C | 55% | 1011 hPa | 0 mm | - | - | - |
| 1777817017 | 15.56° C | 56% | 1010.8 hPa | 0 mm | - | - | - |
| 1777816177 | 13.89° C | 57% | 1010.6 hPa | 0 mm | - | - | - |
| 1777815337 | 12.78° C | 63% | 1010.7 hPa | 0 mm | - | - | - |
| 1777814498 | 12.78° C | 61% | 1010.7 hPa | 0 mm | - | - | - |
* Rain latest hour (hover to see other rain measurements)
** Current wind speed in m/s (hover to see current wind gust speed)